Regional Weather Roundup
Issued by NWS

Home | Current Version | Previous Version | Graphics & Text | Print | Product List | Glossary On
Versions: 1 2 3 4 5 6 7 8 9 10 11 12 13 14 15 16 17 18 19 20 21 22 23 24 25 26 27 28 29 30 31 32 33 34 35 36 37 38 39 40 41 42 43 44 45 46 47 48 49 50
265
ASUS43 KLSX 222357
RWRMO

WEATHER SUMMARY FOR MISSOURI
NATIONAL WEATHER SERVICE SPRINGFIELD MO
600 PM CST SUN JAN 22 2017

NOTE: "FAIR" INDICATES FEW OR NO CLOUDS BELOW 12,000 FEET WITH NO
       SIGNIFICANT WEATHER AND/OR OBSTRUCTIONS TO VISIBILITY.
       CURRENT SKY AND/OR WEATHER CONDITIONS ARE NOT AVAILABLE FOR
       CHILLICOTHE AND FARMINGTON.

MOZ001>031-035>038-043-044-053-054-230100-
...NORTHERN AND WESTERN MISSOURI...

CITY           SKY/WX    TMP DP  RH WIND       PRES   REMARKS
KANSAS CTY INT CLOUDY    38  32  79 N12       29.80R
6HR MIN TEMP:  34; 6HR MAX TEMP:  38;

LEE`S SUMMIT   CLOUDY    38  34  85 NW9       29.80R
6HR MIN TEMP:  35; 6HR MAX TEMP:  41;

ST JOSEPH      CLOUDY    38  35  89 N15       29.83R WCI  29
6HR MIN TEMP:  33; 6HR MAX TEMP:  39;

CHILLICOTHE      N/A     40  35  83 NW7       29.78R
6HR MIN TEMP:  34; 6HR MAX TEMP:  42;


$$
MOZ066>068-077>081-088>096-101>105-230100-
...SOUTHWEST MISSOURI...

CITY           SKY/WX    TMP DP  RH WIND       PRES   REMARKS
SPRINGFIELD    RAIN      43  41  93 N18       29.67R
6HR MIN TEMP:  43; 6HR MAX TEMP:  48; 6HR PCP:  0.20;

JOPLIN         CLOUDY    41  38  89 N16G26    29.78R
6HR MIN TEMP:  41; 6HR MAX TEMP:  46; 6HR PCP:  0.09;

BRANSON        LGT RAIN  45  45 100 NW15G26   29.64R

$$
MOZ032>034-039>042-045>050-055>058-069>072-230100-
...CENTRAL MISSOURI...

CITY           SKY/WX    TMP DP  RH WIND       PRES   REMARKS
COLUMBIA       NOT AVBL
JEFFERSON CITY CLOUDY    42  38  85 NW12      29.69R
6HR MIN TEMP:  42; 6HR MAX TEMP:  49; 6HR PCP:  0.07;

ROLLA          LGT RAIN  43  40  89 N22G31    29.60R
6HR MIN TEMP:  43; 6HR MAX TEMP:  47; 6HR PCP: TRACE;

SEDALIA        CLOUDY    38  36  92 NW13      29.75R WCI  30
6HR MIN TEMP:  37; 6HR MAX TEMP:  47; 6HR PCP:  0.04;

WHITEMAN AFB   CLOUDY    37  37 100 NW7       29.75R
WARRENSBURG    CLOUDY    36  34  93 NW6       29.77R

$$
MOZ051-052-059>065-230100-
...EAST CENTRAL MISSOURI...

CITY           SKY/WX    TMP DP  RH WIND       PRES   REMARKS
ST LOUIS INTL  PTCLDY    48  39  71 N14G26    29.57R
6HR MIN TEMP:  48; 6HR MAX TEMP:  54;


$$
MOZ072>076-082>087-097>100-106>115-230100-
...SOUTH CENTRAL AND SOUTHEAST MISSOURI...

CITY           SKY/WX    TMP DP  RH WIND       PRES   REMARKS
CAPE GIRARDEAU CLOUDY    55  48  77 N23       29.46R
6HR MIN TEMP:  55; 6HR MAX TEMP:  64;

POPLAR BLUFF   CLOUDY    58  50  75 N17       29.46R
6HR MIN TEMP:  57; 6HR MAX TEMP:  61; 6HR PCP: TRACE;

WEST PLAINS    CLOUDY    46  40  79 N15G29    29.57R
6HR MIN TEMP:  45; 6HR MAX TEMP:  51; 6HR PCP:  0.29;


$$



USA.gov is the U.S. government's official web portal to all federal, state and local government web resources and services.